When you browse on this site, cookies collect data to enhance your experience and personalize the content and advertising you see.
Visit our Privacy Policy to learn more. By continuing to use the site, you agree to this use of cookies and data.
  • In Romania
  • List of Countries
  • For 7 days
  • Water Temperature
  • Satellite Maps
  • Weather Map
  • Weather Widgets
  • user-avatar
    Login

    Hourly Weather Kowary

    Today, 22 February, Friday

    Time Temperature Precipitation Wind Pressure Humidity
    00:00 +5°C° 0.4 mm 5 mps 742 mmHg 87%
    01:00 +4°C° 0 mm 4 mps 742 mmHg 87%
    02:00 +4°C° 0.6 mm 4 mps 742 mmHg 88%
    03:00 +3°C° 0.6 mm 5 mps 742 mmHg 89%
    04:00 +3°C° 0.6 mm 5 mps 742 mmHg 90%
    05:00 +2°C° 0.6 mm 6 mps 742 mmHg 87%
    06:00 -1°C° 0.6 mm 7 mps 743 mmHg 85%
    07:00 -3°C° 0 mm 7 mps 744 mmHg 80%
    08:00 -3°C° 0.1 mm 7 mps 746 mmHg 74%
    09:00 -4°C° 0.1 mm 7 mps 747 mmHg 68%
    10:00 -4°C° 0.1 mm 7 mps 748 mmHg 63%
    11:00 -4°C° 0 mm 7 mps 749 mmHg 57%
    12:00 -4°C° 0 mm 7 mps 750 mmHg 51%
    13:00 -4°C° 0 mm 7 mps 751 mmHg 45%
    14:00 -4°C° 0 mm 7 mps 751 mmHg 45%
    15:00 -4°C° 0 mm 7 mps 752 mmHg 44%
    16:00 -6°C° 0 mm 7 mps 752 mmHg 44%
    17:00 -5°C° 0 mm 6 mps 753 mmHg 45%
    18:00 -6°C° 0 mm 6 mps 754 mmHg 45%
    19:00 -6°C° 0 mm 5 mps 754 mmHg 46%
    20:00 -6°C° 0 mm 5 mps 755 mmHg 44%
    21:00 -6°C° 0 mm 5 mps 756 mmHg 41%
    22:00 -7°C° 0 mm 5 mps 756 mmHg 39%
    23:00 -7°C° 0 mm 5 mps 757 mmHg 39%

    Tomorrow, 23 February, Saturday

    Time Temperature Precipitation Wind Pressure Humidity
    00:00 -7°C° 0 mm 5 mps 757 mmHg 40%
    01:00 -7°C° 0 mm 4 mps 758 mmHg 40%
    02:00 -7°C° 0 mm 4 mps 758 mmHg 41%
    03:00 -7°C° 0 mm 4 mps 758 mmHg 43%
    04:00 -6°C° 0 mm 3 mps 758 mmHg 45%
    05:00 -6°C° 0 mm 3 mps 758 mmHg 46%
    06:00 -6°C° 0 mm 3 mps 758 mmHg 48%
    07:00 -7°C° 0 mm 3 mps 759 mmHg 49%
    08:00 -6°C° 0 mm 3 mps 759 mmHg 47%
    09:00 -5°C° 0 mm 3 mps 759 mmHg 44%
    10:00 -5°C° 0 mm 3 mps 759 mmHg 41%
    11:00 -4°C° 0 mm 3 mps 759 mmHg 38%
    12:00 -2°C° 0 mm 3 mps 759 mmHg 35%
    13:00 -2°C° 0 mm 2 mps 759 mmHg 32%
    14:00 -2°C° 0 mm 2 mps 759 mmHg 33%
    15:00 -2°C° 0 mm 2 mps 758 mmHg 33%
    16:00 -2°C° 0 mm 2 mps 758 mmHg 33%
    17:00 0°C° 0 mm 1 mps 758 mmHg 37%
    18:00 -1°C° 0 mm 1 mps 758 mmHg 40%
    19:00 -2°C° 0 mm 1 mps 759 mmHg 43%
    20:00 -2°C° 0 mm 1 mps 758 mmHg 44%
    21:00 -2°C° 0 mm 1 mps 758 mmHg 44%
    22:00 -3°C° 0 mm 0 mps 758 mmHg 45%
    23:00 -2°C° 0 mm 1 mps 758 mmHg 45%

    Day after tomorrow, 24 February, Sunday

    Time Temperature Precipitation Wind Pressure Humidity
    00:00 -2°C° 0 mm 1 mps 758 mmHg 45%
    01:00 -2°C° 0 mm 1 mps 757 mmHg 45%
    02:00 -2°C° 0 mm 1 mps 757 mmHg 44%
    03:00 -1°C° 0 mm 1 mps 757 mmHg 42%
    04:00 -1°C° 0 mm 1 mps 757 mmHg 41%
    05:00 -1°C° 0 mm 1 mps 757 mmHg 41%
    06:00 -1°C° 0 mm 1 mps 757 mmHg 41%
    07:00 -1°C° 0 mm 1 mps 757 mmHg 42%
    08:00 -2°C° 0 mm 2 mps 756 mmHg 37%
    09:00 -1°C° 0 mm 2 mps 756 mmHg 32%
    10:00 +1°C° 0 mm 3 mps 756 mmHg 27%
    11:00 +2°C° 0 mm 3 mps 756 mmHg 25%
    12:00 +3°C° 0 mm 3 mps 756 mmHg 24%
    13:00 +4°C° 0 mm 3 mps 756 mmHg 23%
    14:00 +3°C° 0 mm 3 mps 755 mmHg 27%
    15:00 +3°C° 0 mm 3 mps 755 mmHg 31%
    16:00 +2°C° 0 mm 3 mps 755 mmHg 35%
    17:00 +1°C° 0 mm 3 mps 755 mmHg 39%
    18:00 0°C° 0 mm 3 mps 755 mmHg 42%
    19:00 -1°C° 0 mm 3 mps 755 mmHg 46%
    20:00 -1°C° 0 mm 3 mps 755 mmHg 48%
    21:00 -1°C° 0 mm 3 mps 755 mmHg 49%
    22:00 -1°C° 0 mm 3 mps 756 mmHg 51%
    23:00 -1°C° 0 mm 3 mps 755 mmHg 53%

    25 February, Monday

    Time Temperature Precipitation Wind Pressure Humidity
    00:00 -1°C° 0 mm 3 mps 755 mmHg 55%
    01:00 -1°C° 0 mm 3 mps 755 mmHg 57%
    02:00 -1°C° 0 mm 3 mps 755 mmHg 58%
    03:00 -2°C° 0 mm 4 mps 755 mmHg 59%
    04:00 -2°C° 0 mm 4 mps 755 mmHg 61%
    05:00 -2°C° 0 mm 4 mps 755 mmHg 63%
    06:00 -2°C° 0 mm 4 mps 755 mmHg 64%
    07:00 -2°C° 0 mm 4 mps 755 mmHg 66%
    08:00 -1°C° 0 mm 4 mps 755 mmHg 65%
    09:00 0°C° 0 mm 4 mps 755 mmHg 64%
    10:00 +2°C° 0 mm 5 mps 755 mmHg 63%
    11:00 +4°C° 0 mm 4 mps 755 mmHg 64%
    12:00 +5°C° 0 mm 4 mps 755 mmHg 64%
    13:00 +6°C° 0 mm 4 mps 755 mmHg 64%
    14:00 +6°C° 0 mm 4 mps 754 mmHg 66%
    15:00 +6°C° 0 mm 4 mps 754 mmHg 68%
    16:00 +5°C° 0 mm 3 mps 754 mmHg 70%
    17:00 +4°C° 0 mm 3 mps 754 mmHg 76%
    18:00 +3°C° 0 mm 3 mps 754 mmHg 81%
    19:00 +2°C° 0 mm 3 mps 754 mmHg 87%
    20:00 +2°C° 0 mm 3 mps 754 mmHg 87%
    21:00 +1°C° 0 mm 3 mps 754 mmHg 88%
    22:00 +1°C° 0 mm 3 mps 754 mmHg 89%
    23:00 0°C° 0 mm 4 mps 753 mmHg 89%

    26 February, Tuesday

    Time Temperature Precipitation Wind Pressure Humidity
    00:00 0°C° 0 mm 4 mps 753 mmHg 88%
    01:00 0°C° 0 mm 5 mps 752 mmHg 88%
    02:00 0°C° 0 mm 5 mps 752 mmHg 87%
    03:00 0°C° 0 mm 5 mps 751 mmHg 85%
    04:00 -1°C° 0 mm 6 mps 750 mmHg 84%
    05:00 -1°C° 0 mm 6 mps 750 mmHg 81%
    06:00 +1°C° 0 mm 6 mps 750 mmHg 78%
    07:00 +1°C° 0 mm 6 mps 750 mmHg 75%
    08:00 +2°C° 0 mm 7 mps 749 mmHg 70%
    09:00 +3°C° 0 mm 7 mps 749 mmHg 65%
    10:00 +4°C° 0 mm 8 mps 748 mmHg 60%
    11:00 +5°C° 0 mm 8 mps 748 mmHg 60%
    12:00 +5°C° 0 mm 7 mps 748 mmHg 60%
    13:00 +6°C° 0 mm 7 mps 747 mmHg 60%
    14:00 +5°C° 0.1 mm 7 mps 747 mmHg 63%
    15:00 +5°C° 0.1 mm 6 mps 747 mmHg 67%
    16:00 +4°C° 0.1 mm 6 mps 747 mmHg 70%
    17:00 +4°C° 0 mm 6 mps 747 mmHg 74%
    18:00 +3°C° 0 mm 6 mps 747 mmHg 79%
    19:00 +2°C° 0 mm 5 mps 748 mmHg 83%
    20:00 +2°C° 0 mm 5 mps 748 mmHg 82%
    21:00 +2°C° 0 mm 5 mps 748 mmHg 82%
    22:00 +1°C° 0 mm 5 mps 748 mmHg 82%
    23:00 +1°C° 0 mm 5 mps 748 mmHg 81%

    27 February, Wednesday

    Time Temperature Precipitation Wind Pressure Humidity
    00:00 +1°C° 0 mm 5 mps 748 mmHg 80%
    01:00 0°C° 0 mm 5 mps 748 mmHg 78%
    02:00 0°C° 0 mm 5 mps 748 mmHg 79%
    03:00 -1°C° 0 mm 4 mps 748 mmHg 79%
    04:00 -1°C° 0 mm 4 mps 747 mmHg 79%
    05:00 -1°C° 0 mm 4 mps 748 mmHg 78%
    06:00 -1°C° 0 mm 4 mps 748 mmHg 77%
    07:00 -2°C° 0 mm 4 mps 748 mmHg 76%
    08:00 0°C° 0 mm 4 mps 748 mmHg 69%
    09:00 +1°C° 0 mm 4 mps 748 mmHg 61%
    10:00 +3°C° 0 mm 5 mps 748 mmHg 54%
    11:00 +5°C° 0 mm 5 mps 747 mmHg 50%
    12:00 +6°C° 0 mm 5 mps 747 mmHg 46%
    13:00 +7°C° 0 mm 5 mps 747 mmHg 42%
    14:00 +7°C° 0 mm 4 mps 747 mmHg 43%
    15:00 +7°C° 0 mm 4 mps 746 mmHg 44%
    16:00 +8°C° 0 mm 3 mps 746 mmHg 45%
    17:00 +5°C° 0 mm 3 mps 746 mmHg 50%
    18:00 +5°C° 0 mm 2 mps 746 mmHg 56%
    19:00 +4°C° 0 mm 2 mps 745 mmHg 61%
    20:00 +4°C° 0 mm 2 mps 745 mmHg 63%
    21:00 +3°C° 0 mm 2 mps 745 mmHg 64%
    22:00 +2°C° 0 mm 3 mps 744 mmHg 65%
    23:00 +2°C° 0 mm 3 mps 744 mmHg 66%
    Show more